PBO Station Position Time Series. Reference Frame : NAM14
Format Version,1.1.1
4-character ID,ALTH
Station name,None
Begin Date, 2010-09-27
End Date, 2023-06-26
Release Date, 2023-06-27
Reference position, 36.8896064368 North Latitude, -120.6697623290 East Longitude, 18.65125 meters elevation,
Date, North (mm), East (mm), Vertical (mm), North Std. Deviation (mm), East Std. Deviation (mm),              Vertical Std. Deviation (mm), Quality,
2010-09-27,0.00, 0.00, 0.00, 1.98, 1.62, 7.14, repro,
2010-09-28,-0.50, -0.43, 2.16, 1.99, 1.64, 7.20, repro,
2010-09-29,-1.37, -0.50, 5.82, 1.94, 1.55, 6.99, repro,
2010-09-30,-0.91, -0.30, 4.42, 1.98, 1.57, 7.10, repro,
2010-10-01,-2.54, 0.64, 3.34, 1.98, 1.58, 7.14, repro,
2010-10-02,-0.06, 0.08, 10.73, 1.95, 1.57, 7.14, repro,
2010-10-03,-0.51, -1.67, 0.73, 1.98, 1.62, 7.24, repro,
2010-10-04,-0.32, -1.07, 4.66, 1.98, 1.59, 7.17, repro,
2010-10-05,-0.01, -0.75, 2.63, 1.94, 1.57, 7.05, repro,
2010-10-06,-0.67, -0.15, -3.64, 1.95, 1.57, 7.07, repro,
2010-10-07,0.88, -1.30, 1.42, 2.48, 2.01, 8.88, repro,
2010-10-13,-1.27, 1.37, 0.35, 3.12, 2.64, 11.72, repro,
2010-10-14,-0.24, 0.59, 1.01, 1.97, 1.61, 7.22, repro,
2010-10-15,-0.72, 0.58, -0.42, 2.00, 1.62, 7.33, repro,
2010-10-16,0.02, 0.06, 6.23, 1.97, 1.59, 7.14, repro,
2010-10-17,-0.67, 0.11, 8.20, 2.00, 1.63, 7.35, repro,
2010-10-18,0.45, 1.00, -3.75, 2.03, 1.63, 7.37, repro,
2010-10-19,-0.64, -0.05, -2.05, 1.96, 1.59, 7.08, repro,
2010-10-20,-0.14, -0.41, 1.91, 1.95, 1.57, 7.05, repro,
2010-10-21,-0.90, 0.02, 2.70, 1.96, 1.61, 7.16, repro,
2010-10-22,0.37, -0.84, 11.32, 1.95, 1.60, 7.20, repro,
2010-10-23,-0.11, -0.70, 8.69, 2.01, 1.62, 7.28, repro,
2010-10-24,-1.25, -1.14, 5.15, 1.98, 1.59, 7.18, repro,
2010-10-25,-0.64, 1.01, 0.41, 1.99, 1.60, 7.30, repro,
2010-10-26,2.34, -0.17, 0.14, 1.96, 1.59, 7.19, repro,
2010-10-27,-0.10, -0.29, -2.33, 1.93, 1.60, 7.14, repro,
2010-10-28,0.90, -0.22, -2.89, 1.92, 1.57, 7.06, repro,
2010-10-29,0.78, -0.36, 4.85, 2.06, 1.65, 7.45, repro,
2010-10-30,1.12, -0.30, 5.10, 1.94, 1.57, 7.06, repro,
2010-10-31,0.61, -0.73, 1.29, 2.00, 1.65, 7.28, repro,
2010-11-01,-0.71, -0.33, -4.44, 1.99, 1.65, 7.34, repro,
2010-11-02,0.36, 0.50, -8.22, 1.92, 1.56, 7.01, repro,
2010-11-03,1.04, 0.52, -4.07, 1.96, 1.58, 7.15, repro,
2010-11-04,-0.62, 0.80, -3.08, 1.94, 1.57, 7.08, repro,
2010-11-05,0.72, 1.27, 3.12, 1.96, 1.60, 7.16, repro,
2010-11-06,0.65, 0.33, 9.22, 1.93, 1.57, 7.06, repro,
2010-11-07,-0.58, 1.16, 7.61, 1.93, 1.55, 7.05, repro,
2010-11-08,-2.54, -0.31, 6.80, 1.94, 1.56, 7.10, repro,
2010-11-09,-0.71, -0.05, -1.53, 1.94, 1.56, 7.10, repro,
2010-11-10,0.15, 0.70, 3.88, 1.95, 1.57, 7.11, repro,
2010-11-11,0.83, -0.84, -2.80, 1.92, 1.55, 7.01, repro,
2010-11-12,0.88, 0.09, -4.35, 1.92, 1.55, 7.00, repro,
2010-11-13,0.13, 0.22, -5.58, 1.97, 1.61, 7.20, repro,
2010-11-14,-1.38, -0.27, 2.32, 2.01, 1.63, 7.34, repro,
2010-11-15,0.29, 1.09, -1.45, 1.97, 1.59, 7.22, repro,
2010-11-16,1.47, 1.37, -0.80, 1.99, 1.60, 7.28, repro,
2010-11-17,0.19, 1.33, 2.26, 2.03, 1.62, 7.45, repro,
2010-11-18,0.12, -0.20, 3.28, 2.16, 1.75, 7.84, repro,
2010-11-19,-2.03, 0.64, 5.52, 2.25, 1.78, 7.95, repro,
2010-11-20,-0.29, -0.40, 8.98, 2.03, 1.61, 7.32, repro,
2010-11-21,-1.26, -0.13, 3.14, 2.04, 1.66, 7.39, repro,
2010-11-22,-1.44, -0.64, 6.66, 2.03, 1.64, 7.36, repro,
2010-11-23,-2.12, -1.03, 4.54, 1.97, 1.59, 7.20, repro,
2010-11-24,0.84, 0.13, 6.83, 1.99, 1.59, 7.23, repro,
2010-11-25,-0.38, 0.14, 1.05, 1.97, 1.58, 7.18, repro,
2010-11-26,0.92, 0.53, -0.17, 1.98, 1.58, 7.17, repro,
2010-11-27,0.52, -0.54, 2.32, 1.99, 1.58, 7.22, repro,
2010-11-28,-1.44, -0.46, 9.76, 1.97, 1.55, 7.13, repro,
2010-11-29,-0.37, -0.64, 0.82, 2.00, 1.59, 7.30, repro,
2010-11-30,0.17, -0.24, -2.33, 1.97, 1.58, 7.21, repro,
2010-12-01,-0.05, 0.17, -8.32, 2.06, 1.63, 7.51, repro,
2010-12-02,1.02, 0.39, -1.37, 1.98, 1.59, 7.26, repro,
2010-12-03,0.96, 1.03, -1.97, 2.00, 1.59, 7.26, repro,
2010-12-04,-2.48, 0.61, 1.09, 2.02, 1.58, 7.38, repro,
2010-12-05,-0.18, -0.90, 3.87, 2.05, 1.63, 7.61, repro,
2010-12-06,-1.34, -0.12, 1.22, 2.02, 1.58, 7.29, repro,
2010-12-07,-0.20, 1.39, -4.28, 2.00, 1.61, 7.36, repro,
2010-12-08,0.81, 0.90, -2.99, 2.00, 1.59, 7.31, repro,
2010-12-09,-0.92, 1.40, 3.80, 1.96, 1.54, 7.07, repro,
2010-12-10,-0.61, 0.04, 4.31, 2.02, 1.61, 7.43, repro,
2010-12-11,-0.47, 1.03, 7.14, 1.97, 1.54, 7.11, repro,
2010-12-12,-0.95, 0.28, -1.95, 2.00, 1.55, 7.22, repro,
2010-12-13,-0.93, 1.49, 5.86, 1.99, 1.56, 7.22, repro,
2010-12-14,-1.00, 1.82, 4.09, 2.03, 1.60, 7.45, repro,
2010-12-15,-1.15, 0.57, 9.17, 2.09, 1.65, 7.65, repro,
2010-12-16,-0.54, 1.79, 3.50, 1.98, 1.58, 7.21, repro,
2010-12-17,-1.98, 1.51, -1.11, 2.01, 1.57, 7.15, repro,
2010-12-18,-1.94, 2.43, 1.96, 2.02, 1.60, 7.22, repro,
2010-12-19,-1.22, 1.74, 14.51, 1.98, 1.59, 7.28, repro,
2010-12-20,0.03, 1.34, 4.47, 1.99, 1.59, 7.30, repro,
2010-12-21,-0.12, 1.70, -0.95, 2.02, 1.64, 7.45, repro,
2010-12-22,-1.06, 1.32, 4.68, 2.08, 1.64, 7.41, repro,
2010-12-23,-2.80, 0.69, 0.65, 1.99, 1.58, 7.28, repro,
2010-12-24,-1.50, 1.79, -1.17, 1.98, 1.56, 7.20, repro,
2010-12-25,-4.96, 4.30, -11.62, 5.33, 3.85, 19.36, repro,
2010-12-26,-0.77, 0.77, -6.30, 2.01, 1.56, 7.23, repro,
2010-12-27,0.06, 0.98, -2.44, 1.94, 1.52, 7.00, repro,
2010-12-28,0.30, 1.71, -2.18, 2.03, 1.58, 7.30, repro,
2010-12-29,-0.73, 0.67, 4.09, 2.09, 1.63, 7.50, repro,
2010-12-30,-1.38, 1.35, 9.82, 2.03, 1.59, 7.40, repro,
2010-12-31,-0.75, 1.99, 4.36, 1.96, 1.52, 7.09, repro,
2011-01-01,-0.24, 1.92, -0.23, 1.97, 1.55, 7.16, repro,
2011-01-02,-0.69, 2.75, 1.13, 1.96, 1.52, 7.06, repro,
2011-01-03,-1.68, 1.83, -3.07, 2.00, 1.58, 7.34, repro,
2011-01-04,-1.42, 0.81, 0.06, 2.01, 1.56, 7.13, repro,
2011-01-05,1.01, 1.58, -6.13, 1.96, 1.53, 7.06, repro,
2011-01-06,0.11, 0.88, 0.32, 1.99, 1.58, 7.21, repro,
2011-01-07,0.19, 0.98, 1.13, 1.97, 1.55, 7.13, repro,
2011-01-08,-0.05, 2.38, 2.16, 1.97, 1.57, 7.12, repro,
2011-01-09,-0.48, 1.43, -1.60, 1.97, 1.54, 7.11, repro,
2011-01-10,-0.09, 1.19, 0.19, 2.03, 1.64, 7.51, repro,
2011-01-11,1.05, 2.01, -5.65, 2.05, 1.67, 7.57, repro,
2011-01-12,0.66, 1.70, -5.22, 2.00, 1.55, 7.17, repro,
2011-01-13,0.62, 1.99, -8.62, 2.01, 1.58, 7.20, repro,
2011-01-14,-0.73, 1.84, -2.34, 1.98, 1.57, 7.14, repro,
2011-01-15,0.62, 1.85, -2.86, 2.00, 1.58, 7.24, repro,
2011-01-16,-0.19, -0.42, 0.44, 1.97, 1.54, 7.11, repro,
2011-01-17,1.10, 0.77, 0.13, 2.02, 1.61, 7.32, repro,
2011-01-18,-0.74, 1.25, 3.55, 1.99, 1.57, 7.22, repro,
2011-01-19,0.07, 1.34, -0.34, 2.01, 1.60, 7.28, repro,
2011-01-20,0.78, 1.21, -2.71, 2.00, 1.56, 7.19, repro,
2011-01-21,-0.82, 0.44, -2.03, 2.11, 1.67, 7.78, repro,
2011-01-22,-0.68, 0.10, 4.01, 2.04, 1.57, 7.37, repro,
2011-01-23,0.29, 0.27, 3.57, 2.01, 1.60, 7.33, repro,
2011-01-24,-0.30, -0.18, 5.34, 1.97, 1.56, 7.22, repro,
2011-01-25,0.50, -0.10, 0.84, 1.97, 1.58, 7.20, repro,
2011-01-26,1.80, 0.24, 0.34, 2.14, 1.67, 7.84, repro,
2011-01-27,-0.56, 0.75, -3.12, 2.01, 1.63, 7.43, repro,
2011-01-28,-0.61, -0.86, -0.54, 1.96, 1.54, 7.10, repro,
2011-01-29,-0.22, -1.38, -0.17, 2.08, 1.68, 7.73, repro,
2011-01-30,0.64, 0.28, 2.76, 1.95, 1.52, 7.09, repro,
2011-01-31,-0.24, -1.07, -6.28, 1.99, 1.60, 7.32, repro,
2011-02-01,0.18, -1.26, -8.58, 1.96, 1.54, 7.10, repro,
2011-02-02,-0.88, -0.70, -6.90, 2.00, 1.60, 7.31, repro,
2011-02-03,0.93, -0.71, -7.98, 2.00, 1.60, 7.30, repro,
2011-02-04,-0.54, -0.90, -0.75, 2.05, 1.68, 7.60, repro,
2011-02-05,1.06, -0.46, 0.27, 2.01, 1.61, 7.40, repro,
2011-02-06,0.06, -0.29, -3.37, 2.03, 1.66, 7.58, repro,
2011-02-07,-0.49, -1.36, -5.28, 2.02, 1.65, 7.42, repro,
2011-02-08,-1.14, -2.31, 3.82, 2.01, 1.61, 7.40, repro,
2011-02-09,2.14, -1.26, 2.38, 1.99, 1.58, 7.37, repro,
2011-02-10,1.00, -0.88, 5.16, 1.99, 1.59, 7.29, repro,
2011-02-11,0.56, -1.09, 5.44, 1.98, 1.60, 7.26, repro,
2011-02-12,0.59, -1.13, 0.07, 1.99, 1.61, 7.34, repro,
2011-02-13,0.47, -1.26, 0.39, 1.95, 1.56, 7.17, repro,
2011-02-14,-0.96, -3.48, 4.03, 2.00, 1.58, 7.38, repro,
2011-02-15,-0.48, -2.34, 4.04, 2.01, 1.63, 7.44, repro,
2011-02-16,1.83, -2.18, 11.21, 2.01, 1.63, 7.48, repro,
2011-02-17,-0.35, -2.72, 11.92, 1.95, 1.56, 7.16, repro,
2011-02-18,-0.97, -1.81, 3.43, 1.96, 1.54, 7.11, repro,
2011-02-19,-1.63, -2.94, 4.92, 1.96, 1.53, 7.13, repro,
2011-02-20,-1.04, -4.36, -0.71, 2.34, 1.95, 8.85, repro,
2011-02-21,2.70, 3.73, 24.17, 9.10, 6.52, 39.13, repro,
2011-02-22,-0.95, -2.59, 3.04, 1.97, 1.56, 7.17, repro,
2011-02-23,-0.81, -1.50, -1.84, 2.01, 1.61, 7.31, repro,
2011-02-24,-1.44, -1.66, 4.98, 1.94, 1.52, 7.03, repro,
2011-02-25,-0.76, -2.19, 11.16, 1.94, 1.52, 7.06, repro,
2011-02-26,-0.65, -2.43, 21.24, 2.26, 1.85, 8.39, repro,
2011-02-28,-0.35, -1.83, 1.46, 3.42, 2.52, 11.90, repro,
2011-03-01,-1.66, -2.46, -3.79, 1.94, 1.52, 7.04, repro,
2011-03-02,-0.86, -4.15, 5.80, 1.95, 1.53, 7.13, repro,
2011-03-03,-1.56, -4.14, 5.70, 1.94, 1.52, 7.06, repro,
2011-03-04,-0.99, -2.53, 0.10, 1.95, 1.52, 7.06, repro,
2011-03-05,-1.20, -2.09, -5.90, 1.97, 1.52, 7.11, repro,
2011-03-06,0.26, -2.24, 3.82, 1.97, 1.55, 7.21, repro,
2011-03-07,-1.22, -3.31, 11.18, 1.94, 1.53, 7.08, repro,
2011-03-08,0.06, -3.08, 9.97, 1.97, 1.54, 7.10, repro,
2011-03-09,-0.55, -2.36, 2.36, 1.95, 1.51, 7.06, repro,
2011-03-10,-0.21, -4.12, 3.18, 1.98, 1.55, 7.26, repro,
2011-03-11,0.19, -2.46, 7.59, 1.96, 1.52, 7.14, repro,
2011-03-12,-0.00, -2.73, 0.24, 1.95, 1.52, 7.08, repro,
2011-03-13,-1.35, -3.67, 8.40, 1.97, 1.54, 7.17, repro,
2011-03-14,-1.04, -2.96, 4.70, 2.01, 1.56, 7.25, repro,
2011-03-15,1.08, -3.43, 8.40, 2.03, 1.59, 7.34, repro,
2011-03-16,-1.40, -2.25, 5.93, 2.12, 1.62, 7.60, repro,
2011-03-17,-0.03, -3.49, 6.69, 2.11, 1.59, 7.44, repro,
2011-03-18,-0.36, -3.43, 6.94, 2.05, 1.57, 7.34, repro,
2011-03-19,-1.81, -3.17, 0.51, 2.06, 1.62, 7.45, repro,
2011-03-20,-1.43, -4.47, 10.71, 1.97, 1.52, 7.06, repro,
2011-03-21,-1.57, -3.07, 13.42, 2.09, 1.59, 7.37, repro,
2011-03-22,-1.01, -3.72, 12.15, 2.08, 1.58, 7.35, repro,
2011-03-23,-1.32, -1.80, 5.35, 2.03, 1.56, 7.22, repro,
2011-03-24,-1.51, -2.74, 9.67, 1.96, 1.52, 7.08, repro,
2011-03-26,-1.39, -3.97, 13.36, 2.11, 1.63, 7.44, repro,
2011-03-27,-2.04, -4.17, 3.88, 2.00, 1.55, 7.21, repro,
2011-03-28,-1.45, -4.04, 4.99, 1.98, 1.53, 7.16, repro,
2011-03-29,-1.83, -2.62, 0.76, 1.99, 1.54, 7.20, repro,
2011-03-30,-0.32, -3.33, 5.47, 2.04, 1.56, 7.31, repro,
2011-03-31,-0.53, -2.98, 0.40, 2.08, 1.60, 7.54, repro,
2011-04-01,-0.56, -3.70, 9.44, 2.02, 1.55, 7.21, repro,
2011-04-02,-0.75, -3.30, 9.49, 2.05, 1.57, 7.34, repro,
2011-04-03,-2.21, -4.29, 8.62, 2.08, 1.60, 7.38, repro,
2011-04-04,-0.90, -3.91, 7.47, 2.04, 1.58, 7.34, repro,
2011-04-05,-0.96, -3.39, 14.59, 2.09, 1.61, 7.58, repro,
2011-04-06,-0.84, -3.26, 9.75, 2.04, 1.57, 7.42, repro,
2011-04-07,-1.38, -4.72, 20.69, 2.01, 1.56, 7.31, repro,
2011-04-08,-1.72, -5.29, 13.67, 1.98, 1.53, 7.14, repro,
2011-04-09,-1.42, -3.90, 11.45, 2.02, 1.56, 7.22, repro,
2011-04-10,-0.85, -3.30, 13.13, 2.01, 1.58, 7.30, repro,
2011-04-11,-1.03, -3.86, 15.45, 2.04, 1.60, 7.32, repro,
2011-04-12,-0.89, -2.81, 6.39, 2.04, 1.60, 7.37, repro,
2011-04-13,-1.33, -4.26, 11.37, 1.96, 1.55, 7.23, repro,
2011-04-14,-1.07, -3.91, 6.03, 1.94, 1.52, 7.09, repro,
2011-04-15,-0.79, -3.68, 10.89, 1.96, 1.52, 7.11, repro,
2011-04-16,-1.35, -3.73, 9.91, 1.99, 1.55, 7.22, repro,
2011-04-17,-1.57, -3.46, 11.57, 1.97, 1.53, 7.15, repro,
2011-04-18,-2.46, -3.76, 16.82, 1.96, 1.52, 7.15, repro,
2011-04-19,-2.39, -4.64, 16.83, 1.94, 1.52, 7.07, repro,
2011-04-20,-1.85, -2.97, 20.93, 2.10, 1.64, 7.68, repro,
2011-04-21,-4.17, -2.53, 19.49, 2.15, 1.69, 7.94, repro,
2011-04-22,-2.56, -3.93, 15.82, 1.95, 1.52, 7.14, repro,
2011-04-23,-3.36, -4.02, 20.29, 1.95, 1.53, 7.16, repro,
2011-04-24,-2.70, -3.36, 18.45, 1.95, 1.52, 7.13, repro,
2011-04-25,-1.53, -4.29, 19.15, 1.96, 1.53, 7.18, repro,
2011-04-26,-1.03, -3.63, 11.85, 1.95, 1.53, 7.11, repro,
2011-04-27,-2.14, -2.48, 19.37, 2.39, 1.81, 8.81, repro,
2011-04-28,-1.33, -3.84, 16.95, 1.97, 1.53, 7.17, repro,
2011-04-29,-1.41, -3.05, 16.92, 1.95, 1.53, 7.15, repro,
2011-04-30,-1.93, -2.79, 14.87, 1.95, 1.53, 7.17, repro,
2011-05-01,-0.84, -2.20, 12.67, 2.01, 1.60, 7.50, repro,
2011-05-02,-2.44, -2.71, 19.86, 1.98, 1.54, 7.23, repro,
2011-05-03,-2.46, -3.13, 18.01, 1.99, 1.55, 7.27, repro,
2011-05-04,-2.45, -3.75, 17.84, 1.97, 1.55, 7.19, repro,
2011-05-05,-2.64, -4.27, 17.72, 1.98, 1.56, 7.22, repro,
2011-05-06,-1.86, -4.12, 21.25, 1.98, 1.56, 7.25, repro,
2011-05-07,-2.69, -3.94, 24.18, 1.98, 1.56, 7.32, repro,
2011-05-08,-0.96, -4.01, 25.07, 2.06, 1.62, 7.59, repro,
2011-05-09,-2.59, -3.79, 27.32, 1.97, 1.56, 7.31, repro,
2011-05-10,-0.71, -2.83, 27.28, 1.98, 1.60, 7.41, repro,
2011-05-11,-1.36, -4.12, 19.67, 1.94, 1.52, 7.08, repro,
2011-05-12,-1.35, -3.37, 15.61, 1.94, 1.52, 7.14, repro,
2011-05-13,-0.99, -3.56, 16.47, 1.96, 1.52, 7.15, repro,
2011-05-14,-2.65, -3.85, 26.39, 2.06, 1.61, 7.51, repro,
2011-05-15,-3.27, -3.74, 18.64, 1.98, 1.58, 7.38, repro,
2011-05-16,-1.07, -4.61, 13.62, 1.98, 1.56, 7.29, repro,
2011-05-17,-3.31, -4.50, 24.16, 1.98, 1.56, 7.29, repro,
2011-05-18,-2.18, -4.15, 22.65, 2.09, 1.63, 7.67, repro,
2011-05-19,-2.14, -3.69, 21.55, 2.06, 1.65, 7.80, repro,
2011-05-20,-1.86, -3.56, 13.92, 2.09, 1.64, 7.81, repro,
2011-05-21,-1.52, -2.92, 14.39, 2.00, 1.57, 7.42, repro,
2011-05-22,-0.94, -2.66, 14.41, 2.02, 1.58, 7.38, repro,
2011-05-23,-1.25, -3.06, 20.98, 1.98, 1.56, 7.27, repro,
2011-05-24,-1.18, -3.17, 22.53, 2.03, 1.57, 7.41, repro,
2011-05-25,-0.71, -2.98, 24.25, 2.01, 1.56, 7.32, repro,
2011-05-26,-0.14, -2.79, 23.35, 2.24, 1.79, 8.31, repro,
2011-06-08,-4.09, -3.73, 25.01, 3.37, 2.50, 12.14, repro,
2011-06-09,0.31, -1.79, 22.68, 2.02, 1.56, 7.41, repro,
2011-06-10,-2.10, -1.38, 22.26, 2.00, 1.55, 7.34, repro,
2011-06-11,-1.39, -2.90, 25.52, 1.98, 1.56, 7.35, repro,
2011-06-12,-2.14, -2.98, 29.62, 1.97, 1.56, 7.32, repro,
2011-06-13,-0.59, -1.64, 26.74, 1.98, 1.57, 7.33, repro,
2011-06-14,-1.11, -1.86, 26.73, 1.98, 1.55, 7.31, repro,
2011-06-15,-1.36, -1.67, 24.44, 1.99, 1.54, 7.27, repro,
2011-06-16,-1.28, -0.91, 22.92, 2.01, 1.57, 7.42, repro,
2011-06-17,-1.24, -0.96, 32.16, 3.14, 2.74, 12.23, repro,
2011-06-18,-0.31, 0.48, 28.76, 4.43, 3.09, 15.65, repro,
2011-06-19,-1.51, -3.41, 25.59, 1.98, 1.56, 7.32, repro,
2011-06-20,-0.32, -2.52, 21.74, 2.00, 1.56, 7.30, repro,
2011-06-21,-1.11, -2.00, 27.85, 2.00, 1.56, 7.32, repro,
2011-06-22,-1.16, -2.50, 28.11, 2.06, 1.63, 7.62, repro,
2011-06-23,-3.50, -1.53, 42.08, 4.69, 4.17, 19.42, repro,
2012-01-26,-2.54, -8.20, 20.03, 2.38, 1.96, 8.86, repro,
2012-01-27,-3.17, -8.96, 22.51, 1.95, 1.55, 7.16, repro,
2012-01-28,-3.02, -8.16, 19.73, 2.06, 1.60, 7.49, repro,
2012-01-29,-1.51, -8.66, 20.46, 1.97, 1.56, 7.27, repro,
2012-01-30,-2.89, -9.52, 29.95, 2.06, 1.65, 7.58, repro,
2012-01-31,-3.85, -9.43, 27.56, 1.94, 1.53, 7.13, repro,
2012-02-01,-3.77, -10.07, 26.88, 1.94, 1.54, 7.17, repro,
2012-02-02,-3.61, -10.44, 24.78, 2.03, 1.58, 7.53, repro,
2012-02-03,-2.56, -9.12, 22.96, 1.94, 1.53, 7.13, repro,
2012-02-04,-2.34, -8.90, 23.82, 1.98, 1.59, 7.33, repro,
2012-02-05,-2.82, -9.45, 28.57, 2.00, 1.62, 7.53, repro,
2012-02-06,-2.24, -9.81, 30.99, 1.96, 1.56, 7.25, repro,
2012-02-07,-4.30, -9.86, 27.51, 2.03, 1.57, 7.46, repro,
2012-02-08,-2.53, -9.99, 21.28, 2.03, 1.58, 7.32, repro,
2012-02-09,-3.06, -9.10, 20.40, 1.97, 1.56, 7.19, repro,
2012-02-10,-1.94, -9.89, 24.24, 1.98, 1.56, 7.20, repro,
2012-02-11,-3.66, -9.88, 28.53, 1.98, 1.56, 7.23, repro,
2012-02-12,-3.09, -10.45, 29.73, 2.00, 1.56, 7.27, repro,
2012-02-13,-3.30, -10.04, 28.82, 1.98, 1.55, 7.18, repro,
2012-02-14,-3.08, -10.75, 30.24, 1.96, 1.54, 7.09, repro,
2012-02-15,-1.35, -10.04, 27.56, 1.97, 1.54, 7.18, repro,
2012-02-16,-2.47, -9.24, 25.88, 1.96, 1.56, 7.17, repro,
2012-02-17,-2.17, -9.84, 23.37, 2.09, 1.61, 7.61, repro,
2012-02-18,-2.63, -9.30, 21.92, 1.98, 1.56, 7.21, repro,
2012-02-19,-2.14, -9.75, 30.38, 1.97, 1.55, 7.16, repro,
2012-02-20,-2.40, -9.34, 32.45, 1.97, 1.54, 7.13, repro,
2012-02-21,-1.60, -9.64, 33.14, 2.03, 1.60, 7.43, repro,
2012-02-22,-2.70, -10.36, 29.56, 2.03, 1.59, 7.43, repro,
2012-02-23,-2.77, -8.85, 31.91, 2.01, 1.56, 7.28, repro,
2012-02-24,-1.61, -8.94, 25.95, 2.03, 1.54, 7.37, repro,
2012-02-25,-0.82, -9.53, 26.51, 1.97, 1.54, 7.18, repro,
2012-02-26,-1.84, -8.92, 31.09, 2.05, 1.56, 7.47, repro,
2012-02-27,-2.66, -9.83, 31.50, 2.04, 1.56, 7.38, repro,
2012-02-28,-2.30, -10.05, 30.72, 2.02, 1.55, 7.28, repro,
2012-02-29,-2.86, -10.25, 27.55, 1.97, 1.54, 7.21, repro,
2012-03-01,-2.30, -8.92, 29.99, 2.11, 1.59, 7.47, repro,
2012-03-02,0.34, -9.28, 29.35, 2.12, 1.66, 7.49, repro,
2012-03-03,-0.34, -7.87, 29.84, 1.98, 1.56, 7.22, repro,
2012-03-04,-1.67, -8.89, 25.83, 1.97, 1.52, 7.12, repro,
2012-03-05,-1.02, -8.80, 24.81, 2.07, 1.57, 7.37, repro,
2012-03-06,-1.22, -8.12, 30.91, 2.05, 1.58, 7.33, repro,
2012-03-07,-0.96, -9.02, 31.34, 2.02, 1.54, 7.20, repro,
2012-03-08,0.01, -6.91, 24.25, 2.07, 1.58, 7.51, repro,
2012-03-09,-0.19, -8.21, 18.42, 2.02, 1.55, 7.30, repro,
2012-03-10,-2.87, -7.22, 24.90, 2.05, 1.56, 7.35, repro,
2012-03-11,-2.56, -9.73, 31.52, 2.11, 1.61, 7.57, repro,
2012-03-12,-3.13, -8.06, 33.99, 2.09, 1.59, 7.41, repro,
2012-03-13,-2.64, -9.93, 31.82, 2.08, 1.56, 7.47, repro,
2012-03-14,-0.75, -9.69, 26.00, 2.01, 1.58, 7.37, repro,
2012-03-15,-1.66, -7.54, 18.22, 2.08, 1.57, 7.54, repro,
2012-03-16,0.20, -8.40, 20.58, 1.99, 1.53, 7.26, repro,
2012-03-17,-1.25, -10.06, 26.69, 1.97, 1.53, 7.14, repro,
2012-03-18,-2.44, -8.28, 26.77, 2.03, 1.56, 7.30, repro,
2012-03-19,-0.44, -8.28, 28.06, 1.99, 1.53, 7.18, repro,
2012-03-20,-0.86, -8.95, 25.36, 1.97, 1.51, 7.13, repro,
2012-03-21,-2.19, -8.19, 20.31, 2.18, 1.62, 7.78, repro,
2012-03-22,-1.93, -8.03, 20.79, 1.99, 1.53, 7.20, repro,
2012-03-23,-1.43, -6.93, 16.86, 2.12, 1.61, 7.54, repro,
2012-03-24,-1.99, -9.49, 23.35, 2.02, 1.57, 7.31, repro,
2012-03-25,0.37, -8.54, 15.40, 3.04, 2.34, 10.82, repro,
2012-03-26,-0.29, -5.78, 26.44, 3.72, 2.86, 13.85, repro,
2012-03-27,-2.78, -8.43, 28.43, 2.02, 1.54, 7.22, repro,
2012-03-28,-2.14, -7.39, 25.45, 2.02, 1.56, 7.28, repro,
2012-03-29,-1.20, -8.68, 25.23, 2.04, 1.54, 7.43, repro,
2012-03-30,-0.94, -7.79, 27.61, 2.01, 1.54, 7.22, repro,
2012-03-31,-3.22, -8.82, 32.80, 1.96, 1.52, 7.16, repro,
2012-04-01,-3.41, -9.40, 23.89, 1.95, 1.53, 7.19, repro,
2012-04-02,-2.81, -7.38, 24.14, 2.00, 1.53, 7.31, repro,
2012-04-03,-2.90, -7.75, 21.07, 1.95, 1.52, 7.15, repro,
2012-04-04,-2.44, -8.12, 24.25, 1.96, 1.53, 7.21, repro,
2012-04-05,-1.17, -6.93, 19.30, 1.95, 1.52, 7.20, repro,
2012-04-06,-2.39, -8.13, 26.20, 2.04, 1.56, 7.49, repro,
2012-04-07,-3.76, -8.28, 22.97, 1.95, 1.52, 7.16, repro,
2012-04-08,-4.40, -8.68, 22.72, 2.13, 1.65, 7.79, repro,
2012-04-09,-2.46, -7.86, 20.95, 2.00, 1.57, 7.37, repro,
2012-04-10,-2.05, -7.70, 22.61, 1.98, 1.53, 7.34, repro,
2012-04-11,-2.64, -9.23, 29.30, 1.95, 1.53, 7.19, repro,
2012-04-12,-2.55, -6.93, 17.85, 1.96, 1.58, 7.41, repro,
2012-04-13,-3.69, -9.21, 26.14, 1.95, 1.55, 7.25, repro,
2012-04-14,-4.74, -8.88, 28.87, 2.01, 1.53, 7.35, repro,
2012-04-15,-2.98, -9.59, 24.34, 2.06, 1.59, 7.60, repro,
2012-04-16,-0.66, -8.51, 24.18, 1.94, 1.52, 7.19, repro,
2012-04-17,-2.04, -9.54, 22.98, 1.93, 1.51, 7.08, repro,
2012-04-18,-2.67, -8.99, 25.98, 1.99, 1.54, 7.32, repro,
2012-04-19,-3.50, -8.08, 20.93, 2.11, 1.65, 7.56, repro,
2012-04-20,-4.08, -8.57, 25.77, 2.04, 1.57, 7.34, repro,
2012-04-21,-2.63, -8.82, 20.03, 1.96, 1.54, 7.23, repro,
2012-04-22,-3.72, -10.02, 32.21, 2.03, 1.56, 7.50, repro,
2012-04-23,-3.23, -7.86, 26.47, 2.02, 1.59, 7.50, repro,
2012-04-24,-2.62, -8.59, 26.66, 2.01, 1.57, 7.30, repro,
2012-04-25,-2.25, -8.55, 23.23, 2.07, 1.69, 7.72, repro,
2012-04-26,-2.03, -8.91, 25.85, 1.99, 1.54, 7.33, repro,
2012-04-27,-1.96, -9.23, 23.35, 2.05, 1.56, 7.39, repro,
2012-04-28,-2.21, -8.71, 31.13, 2.12, 1.73, 7.96, repro,
2012-04-29,-2.62, -8.97, 23.52, 1.95, 1.53, 7.18, repro,
2012-04-30,-2.44, -8.82, 24.31, 2.01, 1.53, 7.36, repro,
2012-05-01,-2.70, -8.42, 33.48, 1.99, 1.56, 7.38, repro,
2012-05-02,-1.90, -8.36, 32.66, 1.98, 1.55, 7.32, repro,
2012-05-03,-2.31, -8.48, 31.74, 1.95, 1.52, 7.15, repro,
2012-05-04,-2.56, -8.95, 24.43, 2.10, 1.60, 7.61, repro,
2012-05-05,-1.49, -7.35, 19.14, 1.98, 1.55, 7.24, repro,
2012-05-06,-1.88, -7.49, 18.88, 1.97, 1.57, 7.37, repro,
2012-05-07,-2.54, -7.48, 26.85, 1.98, 1.55, 7.22, repro,
2012-05-08,-3.17, -8.21, 27.06, 2.02, 1.53, 7.35, repro,
2012-05-09,-2.10, -7.72, 26.01, 1.94, 1.50, 7.10, repro,
2012-05-10,-3.52, -8.79, 26.67, 2.06, 1.58, 7.40, repro,
2012-05-11,-2.15, -7.64, 19.65, 1.95, 1.52, 7.18, repro,
2012-05-12,-2.64, -6.57, 21.66, 1.99, 1.54, 7.30, repro,
2012-05-13,-2.90, -6.31, 24.52, 1.96, 1.54, 7.18, repro,
2012-05-14,-2.06, -7.10, 23.07, 1.94, 1.51, 7.11, repro,
2012-05-15,-1.93, -7.14, 26.22, 1.95, 1.51, 7.12, repro,
2012-05-16,-1.12, -6.83, 24.99, 2.00, 1.52, 7.33, repro,
2012-05-17,-1.55, -8.05, 26.76, 2.01, 1.54, 7.44, repro,
2012-05-18,-2.07, -8.14, 31.62, 1.98, 1.55, 7.28, repro,
2012-05-19,-2.28, -7.68, 29.63, 1.97, 1.54, 7.21, repro,
2012-05-20,-1.76, -6.55, 27.68, 2.03, 1.58, 7.40, repro,
2012-05-21,-1.25, -6.78, 28.15, 2.03, 1.59, 7.32, repro,
2012-05-22,-1.65, -7.80, 28.24, 2.05, 1.60, 7.45, repro,
2012-05-23,-0.54, -6.11, 27.96, 2.05, 1.61, 7.44, repro,
2012-05-24,-1.16, -7.07, 28.21, 2.24, 1.80, 8.61, repro,
2012-05-25,-4.13, -8.40, 30.47, 2.32, 1.75, 8.40, repro,
2012-05-26,-1.43, -6.55, 29.75, 2.28, 1.88, 8.60, repro,
2012-05-27,0.20, -5.97, 21.74, 3.60, 2.76, 13.06, repro,
2012-05-28,-1.03, -5.75, 33.78, 2.14, 1.68, 7.85, repro,
2012-05-29,-0.73, -6.07, 27.01, 1.97, 1.53, 7.20, repro,
2012-05-30,-0.63, -5.83, 27.97, 2.18, 1.68, 8.00, repro,
2012-05-31,-0.90, -5.47, 27.34, 1.97, 1.52, 7.15, repro,
2012-06-01,0.12, -7.00, 29.54, 2.07, 1.55, 7.44, repro,
2012-06-02,-0.14, -5.07, 31.71, 2.03, 1.54, 7.46, repro,
2012-06-03,-1.29, -6.21, 26.92, 1.94, 1.51, 7.09, repro,
2012-06-04,-2.10, -5.15, 40.55, 1.99, 1.58, 7.35, repro,
2012-06-05,-2.84, -5.72, 28.67, 2.06, 1.59, 7.62, repro,
2012-06-06,-0.92, -5.92, 26.33, 1.95, 1.52, 7.14, repro,
2012-06-07,-0.46, -5.44, 23.66, 1.94, 1.50, 7.04, repro,
2012-06-08,0.46, -3.95, 21.63, 2.32, 1.75, 8.11, repro,
2012-06-09,0.09, -5.01, 31.62, 1.96, 1.52, 7.18, repro,
2012-06-10,0.14, -5.69, 30.97, 1.94, 1.52, 7.17, repro,
2012-06-11,-1.72, -5.78, 23.48, 1.93, 1.51, 7.09, repro,
2012-06-12,-2.53, -6.02, 26.28, 1.95, 1.51, 7.09, repro,
2012-06-13,-0.90, -5.20, 29.11, 1.98, 1.54, 7.11, repro,
2012-06-14,-0.78, -5.46, 27.51, 1.96, 1.51, 7.15, repro,
2012-06-15,-0.08, -6.59, 31.32, 1.95, 1.51, 7.13, repro,
2012-06-16,-0.36, -5.14, 27.44, 2.01, 1.59, 7.54, repro,
2012-06-17,-0.31, -6.07, 31.78, 1.97, 1.51, 7.22, repro,
2012-06-18,-1.02, -4.53, 30.05, 1.95, 1.50, 7.10, repro,
2012-06-19,-1.27, -5.36, 28.84, 2.04, 1.58, 7.38, repro,
2012-06-20,-0.45, -5.53, 32.14, 1.95, 1.53, 7.23, repro,
2012-06-21,-0.54, -6.06, 27.45, 1.94, 1.51, 7.14, repro,
2012-06-22,-0.18, -6.07, 23.25, 1.95, 1.52, 7.18, repro,
2012-06-23,-2.61, -5.41, 27.44, 1.95, 1.52, 7.20, repro,
2012-06-24,-2.36, -5.37, 26.63, 1.99, 1.51, 7.28, repro,
2012-06-25,-2.55, -5.34, 28.23, 2.03, 1.57, 7.55, repro,
2012-06-26,-0.93, -5.02, 30.44, 1.96, 1.52, 7.15, repro,
2012-06-27,-1.37, -6.03, 24.13, 1.94, 1.51, 7.15, repro,
2012-06-28,-0.56, -5.30, 23.71, 1.96, 1.51, 7.14, repro,
2012-06-29,-0.03, -5.69, 23.92, 2.03, 1.56, 7.41, repro,
2012-06-30,-0.14, -5.51, 25.21, 1.94, 1.51, 7.13, repro,
2012-07-01,1.53, -5.85, 26.06, 1.97, 1.52, 7.16, repro,
2012-07-02,0.80, -5.67, 27.53, 1.98, 1.50, 7.24, repro,
2012-07-03,-0.52, -5.88, 27.61, 1.98, 1.53, 7.23, repro,
2012-07-04,-0.39, -4.16, 25.27, 1.94, 1.52, 7.14, repro,
2012-07-05,-1.06, -5.46, 27.26, 1.96, 1.54, 7.17, repro,
2012-07-06,-0.53, -5.42, 24.80, 1.97, 1.55, 7.23, repro,
2012-07-07,0.37, -5.08, 23.94, 1.94, 1.50, 7.07, repro,
2012-07-08,-0.79, -5.16, 23.37, 1.96, 1.50, 7.13, repro,
2012-07-09,-1.58, -5.94, 22.33, 1.95, 1.51, 7.12, repro,